Location: Dal�� Lhota
(48.7500°N, 14.0167°E)
Time: 00:18:11
(UTC+00:00)

Vanguard 3 - Pass Details

Date: 06 August 2021
Orbit: 510 x 3260 km, 33.3° (Epoch: 16 September)

Event Time Altitude Azimuth Distance (km) Brightness Sun altitude
Rises 22:55:07 0° 272° (W) 7,032 12.0 -24.7°
Reaches altitude 10° 23:04:24 10° 249° (WSW) 6,195 11.4 -24.8°
Maximum altitude 23:10:51 13° 230° (SW) 5,930 11.2 -24.8°
Enters shadow 23:13:10 12° 223° (SW) 5,911 11.1 -24.8°
Drops below altitude 10° 23:17:09 10° 210° (SSW) 5,978 - -24.8°
Sets 23:25:50 0° 186° (S) 6,538 - -24.7°
